RYR71QD LIBD-LZIB

Flight info

Callsign RYR71QD
Flight time 1h 16m
Altitude 38000
Route BANAV DCT AIOSA DCT RUDIK DCT INSAX DCT NIGSI DCT BEGLA DCT KUVEX
Aircraft B738/M-SADE3FGIJ1LRWY/SB1

Departure

Time 2026-05-08 09:53
Airport Bari Karol Wojtyła International Airport (LIBD)

Arrival

Time 2026-05-08 11:09
Airport M. R. Štefánik Airport (LZIB)
Time Latitude Longitude Altitude Speed Heading
2026-05-08 09:24 41.13556 16.76457 135 ft 0 kts 159°
2026-05-08 09:46 41.13565 16.76453 135 ft 4 kts 161°
2026-05-08 09:46 41.13591 16.76444 135 ft 4 kts 172°
2026-05-08 09:46 41.13617 16.76443 135 ft 4 kts 196°
2026-05-08 09:47 41.13635 16.76458 135 ft 2 kts 249°
2026-05-08 09:47 41.13636 16.76460 135 ft 1 kts 250°
2026-05-08 09:48 41.13631 16.76443 135 ft 9 kts 250°
2026-05-08 09:49 41.13596 16.76319 135 ft 16 kts 250°
2026-05-08 09:49 41.13555 16.76171 135 ft 15 kts 250°
2026-05-08 09:49 41.13599 16.76067 135 ft 15 kts 321°
2026-05-08 09:49 41.13633 16.75952 135 ft 15 kts 255°
2026-05-08 09:50 41.13595 16.75814 137 ft 16 kts 249°
2026-05-08 09:50 41.13552 16.75663 137 ft 19 kts 249°
2026-05-08 09:50 41.13505 16.75498 141 ft 19 kts 249°
2026-05-08 09:50 41.13457 16.75328 141 ft 21 kts 249°
2026-05-08 09:51 41.13405 16.75146 145 ft 21 kts 249°
2026-05-08 09:51 41.13353 16.74962 147 ft 22 kts 249°
2026-05-08 09:51 41.13297 16.74764 147 ft 24 kts 249°
2026-05-08 09:51 41.13239 16.74560 151 ft 19 kts 249°
2026-05-08 09:52 41.13195 16.74404 153 ft 19 kts 249°
2026-05-08 09:52 41.13172 16.74233 150 ft 20 kts 300°
2026-05-08 09:52 41.13249 16.74112 144 ft 19 kts 344°
2026-05-08 09:52 41.13321 16.74180 146 ft 14 kts 68°
2026-05-08 09:53 41.13392 16.74431 145 ft 61 kts 69°
2026-05-08 09:53 41.13631 16.75279 139 ft 132 kts 69°
2026-05-08 09:53 41.14012 16.76636 308 ft 173 kts 70°
2026-05-08 09:53 41.14426 16.78144 1265 ft 170 kts 73°
2026-05-08 09:54 41.14844 16.79603 2149 ft 179 kts 75°
2026-05-08 09:54 41.15323 16.81276 2420 ft 208 kts 75°
2026-05-08 09:54 41.15865 16.83147 2859 ft 223 kts 75°
2026-05-08 09:54 41.16432 16.85099 3594 ft 227 kts 74°
2026-05-08 09:55 41.17009 16.87084 4448 ft 232 kts 73°
2026-05-08 09:55 41.17689 16.89057 5275 ft 238 kts 57°
2026-05-08 09:55 41.18970 16.90439 6244 ft 243 kts 31°
2026-05-08 09:55 41.20559 16.91340 6964 ft 253 kts 24°
2026-05-08 09:56 41.22250 16.92142 7548 ft 268 kts 21°
2026-05-08 09:56 41.24060 16.92984 8137 ft 281 kts 22°
2026-05-08 09:56 41.25928 16.93842 8936 ft 287 kts 21°
2026-05-08 09:56 41.27825 16.94710 9820 ft 290 kts 20°
2026-05-08 09:57 41.31818 16.96541 10658 ft 327 kts 21°
2026-05-08 09:57 41.34015 16.97551 11166 ft 339 kts 20°
2026-05-08 09:57 41.36228 16.98566 11977 ft 344 kts 22°
2026-05-08 09:58 41.38539 16.99634 12842 ft 351 kts 22°
2026-05-08 09:58 41.40824 17.00697 13753 ft 353 kts 21°
2026-05-08 09:58 41.43152 17.01763 14485 ft 357 kts 20°
2026-05-08 09:58 41.45521 17.02849 15073 ft 363 kts 20°
2026-05-08 09:59 41.47916 17.03949 15793 ft 365 kts 20°
2026-05-08 09:59 41.50333 17.05063 16476 ft 370 kts 19°
2026-05-08 09:59 41.52774 17.06191 17151 ft 373 kts 19°
2026-05-08 09:59 41.55243 17.07331 17840 ft 377 kts 18°
2026-05-08 10:00 41.57742 17.08485 18424 ft 383 kts 18°
2026-05-08 10:00 41.60273 17.09656 18998 ft 386 kts 18°
2026-05-08 10:00 41.62814 17.10833 19632 ft 388 kts 17°
2026-05-08 10:00 41.65383 17.12024 20111 ft 395 kts 16°
2026-05-08 10:01 41.67985 17.13232 20692 ft 397 kts 17°
2026-05-08 10:01 41.70607 17.14450 21213 ft 402 kts 17°
2026-05-08 10:01 41.73271 17.15688 21681 ft 407 kts 18°
2026-05-08 10:01 41.75961 17.16941 22235 ft 411 kts 17°
2026-05-08 10:02 41.78674 17.18206 22781 ft 414 kts 17°
2026-05-08 10:02 41.81405 17.19478 23338 ft 417 kts 18°
2026-05-08 10:02 41.83224 17.20326 23665 ft 419 kts 17°
2026-05-08 10:02 41.86002 17.21622 23968 ft 426 kts 18°
2026-05-08 10:03 41.88797 17.22927 24526 ft 424 kts 17°
2026-05-08 10:03 41.91662 17.23868 24934 ft 425 kts
2026-05-08 10:03 41.94631 17.24071 25227 ft 429 kts 355°
2026-05-08 10:03 41.97583 17.23573 25757 ft 426 kts 346°
2026-05-08 10:04 42.00489 17.22737 26166 ft 429 kts 345°
2026-05-08 10:04 42.03418 17.21866 26483 ft 434 kts 345°
2026-05-08 10:04 42.06376 17.21000 26920 ft 435 kts 346°
2026-05-08 10:04 42.09339 17.20137 27352 ft 436 kts 345°
2026-05-08 10:05 42.12325 17.19268 27662 ft 441 kts 345°
2026-05-08 10:05 42.15339 17.18387 27960 ft 446 kts 345°
2026-05-08 10:05 42.18364 17.17498 28438 ft 445 kts 346°
2026-05-08 10:05 42.21395 17.16607 28845 ft 447 kts 346°
2026-05-08 10:06 42.24449 17.15708 29092 ft 452 kts 345°
2026-05-08 10:06 42.27535 17.14798 29371 ft 456 kts 346°
2026-05-08 10:06 42.30628 17.13883 29869 ft 454 kts 346°
2026-05-08 10:06 42.33717 17.12967 30212 ft 456 kts 346°
2026-05-08 10:07 42.36837 17.12041 30355 ft 462 kts 346°
2026-05-08 10:07 42.39988 17.11105 30609 ft 464 kts 346°
2026-05-08 10:07 42.43140 17.10170 30966 ft 464 kts 346°
2026-05-08 10:07 42.46291 17.09233 31263 ft 465 kts 346°
2026-05-08 10:08 42.49455 17.08292 31560 ft 466 kts 346°
2026-05-08 10:08 42.52616 17.07351 31897 ft 465 kts 346°
2026-05-08 10:08 42.55774 17.06409 32292 ft 464 kts 346°
2026-05-08 10:08 42.58925 17.05468 32642 ft 463 kts 346°
2026-05-08 10:09 42.62072 17.04528 32973 ft 463 kts 346°
2026-05-08 10:09 42.65222 17.03585 33253 ft 464 kts 346°
2026-05-08 10:09 42.68377 17.02639 33556 ft 464 kts 346°
2026-05-08 10:09 42.71527 17.01694 33911 ft 463 kts 346°
2026-05-08 10:10 42.74672 17.00750 34220 ft 462 kts 346°
2026-05-08 10:10 42.77770 16.99820 34497 ft 462 kts 345°
2026-05-08 10:10 42.80907 16.98876 34773 ft 461 kts 345°
2026-05-08 10:10 42.84038 16.97932 35055 ft 461 kts 345°
2026-05-08 10:11 42.87164 16.96990 35328 ft 460 kts 345°
2026-05-08 10:11 42.90290 16.96046 35588 ft 460 kts 345°
2026-05-08 10:11 42.93406 16.95105 35855 ft 459 kts 345°
2026-05-08 10:11 42.96523 16.94163 36130 ft 458 kts 344°
2026-05-08 10:12 42.99638 16.93220 36354 ft 459 kts 344°
2026-05-08 10:12 43.02751 16.92276 36618 ft 458 kts 344°
2026-05-08 10:12 43.05859 16.91334 36893 ft 457 kts 344°
2026-05-08 10:12 43.08955 16.90394 37133 ft 456 kts 344°
2026-05-08 10:13 43.12051 16.89453 37376 ft 456 kts 344°
2026-05-08 10:13 43.15146 16.88511 37617 ft 455 kts 344°
2026-05-08 10:13 43.18231 16.87571 37872 ft 454 kts 343°
2026-05-08 10:13 43.21315 16.86631 38043 ft 455 kts 343°
2026-05-08 10:14 43.27518 16.84735 38019 ft 456 kts 343°
2026-05-08 10:14 43.33683 16.82852 38039 ft 452 kts 343°
2026-05-08 10:15 43.39798 16.80977 38027 ft 449 kts 343°
2026-05-08 10:15 43.45879 16.79110 38046 ft 447 kts 343°
2026-05-08 10:16 43.51941 16.77241 38048 ft 446 kts 343°
2026-05-08 10:16 43.58008 16.75368 38029 ft 447 kts 343°
2026-05-08 10:17 43.64091 16.73487 38043 ft 448 kts 343°
2026-05-08 10:17 43.70153 16.71609 38041 ft 450 kts 343°
2026-05-08 10:18 43.76284 16.69705 38054 ft 453 kts 343°
2026-05-08 10:18 43.82443 16.67790 38036 ft 454 kts 343°
2026-05-08 10:19 43.88618 16.65865 38043 ft 455 kts 343°
2026-05-08 10:20 43.97874 16.62973 38039 ft 454 kts 343°
2026-05-08 10:20 44.04035 16.61042 38036 ft 453 kts 343°
2026-05-08 10:21 44.10176 16.59114 38044 ft 452 kts 343°
2026-05-08 10:21 44.16304 16.57185 38059 ft 451 kts 343°
2026-05-08 10:22 44.22437 16.55249 38043 ft 452 kts 343°
2026-05-08 10:22 44.28554 16.53316 38056 ft 450 kts 343°
2026-05-08 10:23 44.34662 16.51381 38060 ft 450 kts 343°
2026-05-08 10:23 44.40722 16.49457 38064 ft 449 kts 343°
2026-05-08 10:24 44.46819 16.47516 38062 ft 449 kts 343°
2026-05-08 10:24 44.52912 16.45573 38076 ft 449 kts 343°
2026-05-08 10:25 44.59005 16.43626 38084 ft 449 kts 343°
2026-05-08 10:25 44.65112 16.41670 38078 ft 451 kts 343°
2026-05-08 10:26 44.71227 16.39706 38080 ft 451 kts 343°
2026-05-08 10:26 44.77350 16.37737 38084 ft 451 kts 343°
2026-05-08 10:27 44.83477 16.35761 38082 ft 452 kts 343°
2026-05-08 10:27 44.89612 16.33777 38086 ft 452 kts 342°
2026-05-08 10:28 44.95748 16.31789 38088 ft 453 kts 342°
2026-05-08 10:28 45.01943 16.30064 38083 ft 457 kts 349°
2026-05-08 10:29 45.08297 16.29362 38094 ft 459 kts 352°
2026-05-08 10:29 45.14674 16.28806 38090 ft 459 kts 352°
2026-05-08 10:30 45.21007 16.28187 38094 ft 459 kts 351°
2026-05-08 10:30 45.27382 16.27505 38084 ft 459 kts 351°
2026-05-08 10:31 45.33752 16.26803 38091 ft 459 kts 351°
2026-05-08 10:31 45.40117 16.26099 38113 ft 459 kts 351°
2026-05-08 10:32 45.46489 16.25394 38094 ft 459 kts 351°
2026-05-08 10:32 45.52858 16.24690 38086 ft 459 kts 351°
2026-05-08 10:33 45.59217 16.23985 38092 ft 458 kts 351°
2026-05-08 10:33 45.65570 16.23279 38100 ft 458 kts 351°
2026-05-08 10:34 45.71916 16.22573 38100 ft 457 kts 351°
2026-05-08 10:34 45.78261 16.21865 38104 ft 457 kts 351°
2026-05-08 10:35 45.84602 16.21155 38105 ft 457 kts 350°
2026-05-08 10:35 45.90943 16.20444 38096 ft 457 kts 350°
2026-05-08 10:36 45.97279 16.19732 38095 ft 457 kts 350°
2026-05-08 10:36 46.03616 16.19019 38106 ft 456 kts 350°
2026-05-08 10:37 46.09983 16.18297 37535 ft 461 kts 350°
2026-05-08 10:37 46.13161 16.17940 37165 ft 455 kts 350°
2026-05-08 10:37 46.16307 16.17588 36771 ft 451 kts 350°
2026-05-08 10:37 46.19414 16.17240 36376 ft 446 kts 350°
2026-05-08 10:38 46.22487 16.16893 35998 ft 441 kts 350°
2026-05-08 10:38 46.25535 16.16548 35638 ft 437 kts 349°
2026-05-08 10:38 46.28555 16.16204 35233 ft 434 kts 349°
2026-05-08 10:38 46.31554 16.15863 34851 ft 431 kts 349°
2026-05-08 10:39 46.34495 16.15528 34467 ft 428 kts 349°
2026-05-08 10:39 46.37456 16.15190 34085 ft 425 kts 349°
2026-05-08 10:39 46.40393 16.14854 33658 ft 422 kts 349°
2026-05-08 10:39 46.43310 16.14520 33253 ft 419 kts 349°
2026-05-08 10:40 46.46203 16.14186 32887 ft 415 kts 348°
2026-05-08 10:40 46.49073 16.13856 32507 ft 412 kts 348°
2026-05-08 10:40 46.51921 16.13530 32136 ft 409 kts 349°
2026-05-08 10:40 46.54744 16.13207 31776 ft 405 kts 349°
2026-05-08 10:41 46.57544 16.12886 31428 ft 402 kts 349°
2026-05-08 10:41 46.60322 16.12567 31069 ft 399 kts 349°
2026-05-08 10:41 46.63080 16.12249 30720 ft 396 kts 349°
2026-05-08 10:41 46.65819 16.11933 30396 ft 394 kts 349°
2026-05-08 10:42 46.68538 16.11617 30029 ft 391 kts 349°
2026-05-08 10:42 46.71241 16.11304 29625 ft 388 kts 349°
2026-05-08 10:42 46.73920 16.10995 29253 ft 384 kts 349°
2026-05-08 10:42 46.76571 16.10689 28897 ft 380 kts 349°
2026-05-08 10:43 46.79197 16.10385 28535 ft 377 kts 349°
2026-05-08 10:43 46.81800 16.10083 28195 ft 373 kts 349°
2026-05-08 10:43 46.84374 16.09784 27826 ft 370 kts 349°
2026-05-08 10:43 46.86927 16.09488 27486 ft 367 kts 349°
2026-05-08 10:44 46.89459 16.09193 27143 ft 363 kts 349°
2026-05-08 10:44 46.91967 16.08900 26791 ft 360 kts 349°
2026-05-08 10:44 46.94456 16.08609 26458 ft 357 kts 349°
2026-05-08 10:44 46.96925 16.08320 26117 ft 355 kts 349°
2026-05-08 10:45 46.99374 16.08034 25782 ft 352 kts 350°
2026-05-08 10:45 47.01809 16.07749 25456 ft 350 kts 350°
2026-05-08 10:45 47.04224 16.07465 25125 ft 347 kts 350°
2026-05-08 10:45 47.06626 16.07183 24798 ft 345 kts 350°
2026-05-08 10:46 47.09008 16.06903 24485 ft 343 kts 350°
2026-05-08 10:46 47.11381 16.06624 24160 ft 341 kts 350°
2026-05-08 10:46 47.13741 16.06346 23834 ft 339 kts 351°
2026-05-08 10:46 47.16090 16.06069 23474 ft 338 kts 351°
2026-05-08 10:47 47.18426 16.05794 23100 ft 336 kts 351°
2026-05-08 10:47 47.20742 16.05521 22785 ft 332 kts 351°
2026-05-08 10:47 47.23039 16.05250 22455 ft 330 kts 351°
2026-05-08 10:47 47.25314 16.04980 22131 ft 327 kts 351°
2026-05-08 10:48 47.27573 16.04711 21812 ft 325 kts 351°
2026-05-08 10:48 47.29817 16.04445 21477 ft 323 kts 351°
2026-05-08 10:48 47.32018 16.04186 21172 ft 321 kts 351°
2026-05-08 10:48 47.34238 16.03958 20850 ft 320 kts 357°
2026-05-08 10:49 47.36425 16.04650 20507 ft 328 kts 24°
2026-05-08 10:49 47.38248 16.06676 20268 ft 332 kts 48°
2026-05-08 10:49 47.39622 16.09473 20067 ft 342 kts 55°
2026-05-08 10:49 47.40924 16.12468 19836 ft 350 kts 57°
2026-05-08 10:50 47.42216 16.15531 19604 ft 351 kts 57°
2026-05-08 10:50 47.43500 16.18579 19345 ft 348 kts 57°
2026-05-08 10:50 47.44781 16.21601 19023 ft 346 kts 57°
2026-05-08 10:50 47.46061 16.24599 18706 ft 344 kts 57°
2026-05-08 10:51 47.47343 16.27584 18376 ft 343 kts 57°
2026-05-08 10:51 47.48620 16.30551 18009 ft 342 kts 57°
2026-05-08 10:51 47.49893 16.33504 17650 ft 340 kts 57°
2026-05-08 10:51 47.51156 16.36449 17308 ft 338 kts 58°
2026-05-08 10:52 47.52358 16.39485 16687 ft 344 kts 60°
2026-05-08 10:52 47.53525 16.42581 16268 ft 344 kts 61°
2026-05-08 10:52 47.54675 16.45672 15924 ft 341 kts 61°
2026-05-08 10:52 47.55814 16.48742 15593 ft 339 kts 61°
2026-05-08 10:53 47.56564 16.50762 15375 ft 337 kts 61°
2026-05-08 10:53 47.57690 16.53789 15059 ft 335 kts 61°
2026-05-08 10:53 47.58809 16.56794 14738 ft 332 kts 61°
2026-05-08 10:53 47.59920 16.59776 14434 ft 329 kts 61°
2026-05-08 10:54 47.61023 16.62738 14118 ft 327 kts 61°
2026-05-08 10:54 47.62118 16.65679 13796 ft 325 kts 61°
2026-05-08 10:54 47.63204 16.68599 13459 ft 322 kts 61°
2026-05-08 10:54 47.64282 16.71497 13135 ft 319 kts 61°
2026-05-08 10:55 47.65347 16.74364 12841 ft 316 kts 61°
2026-05-08 10:55 47.66402 16.77209 12530 ft 314 kts 61°
2026-05-08 10:55 47.67447 16.80029 12241 ft 310 kts 61°
2026-05-08 10:55 47.68483 16.82828 11938 ft 308 kts 61°
2026-05-08 10:56 47.69510 16.85603 11638 ft 306 kts 61°
2026-05-08 10:56 47.70529 16.88360 11341 ft 303 kts 61°
2026-05-08 10:56 47.71538 16.91095 11052 ft 301 kts 61°
2026-05-08 10:56 47.72541 16.93814 10761 ft 299 kts 61°
2026-05-08 10:57 47.73535 16.96512 10483 ft 297 kts 61°
2026-05-08 10:57 47.74524 16.99197 10213 ft 295 kts 61°
2026-05-08 10:57 47.76431 17.04389 9807 ft 285 kts 61°
2026-05-08 10:58 47.77378 17.06967 9528 ft 283 kts 61°
2026-05-08 10:58 47.78316 17.09524 9231 ft 281 kts 61°
2026-05-08 10:58 47.79249 17.12074 8937 ft 280 kts 61°
2026-05-08 10:58 47.80178 17.14612 8637 ft 279 kts 60°
2026-05-08 10:59 47.81101 17.17139 8370 ft 277 kts 60°
2026-05-08 10:59 47.82017 17.19646 8101 ft 275 kts 60°
2026-05-08 10:59 47.82929 17.22142 7831 ft 274 kts 60°
2026-05-08 10:59 47.83833 17.24623 7568 ft 272 kts 60°
2026-05-08 11:00 47.84734 17.27096 7317 ft 271 kts 60°
2026-05-08 11:00 47.85631 17.29559 7045 ft 270 kts 60°
2026-05-08 11:00 47.86525 17.32018 6777 ft 270 kts 60°
2026-05-08 11:00 47.87416 17.34468 6505 ft 269 kts 60°
2026-05-08 11:01 47.88298 17.36898 6330 ft 263 kts 60°
2026-05-08 11:01 47.89147 17.39243 6201 ft 249 kts 60°
2026-05-08 11:01 47.89939 17.41434 6092 ft 232 kts 59°
2026-05-08 11:01 47.90701 17.43522 6004 ft 230 kts 57°
2026-05-08 11:02 47.91747 17.45338 5769 ft 232 kts 39°
2026-05-08 11:02 47.94048 17.48512 5288 ft 216 kts 41°
2026-05-08 11:02 47.95107 17.50001 5079 ft 204 kts 37°
2026-05-08 11:03 47.96312 17.50909 4868 ft 187 kts
2026-05-08 11:03 47.97484 17.50415 4621 ft 177 kts 329°
2026-05-08 11:03 47.98531 17.49437 4317 ft 174 kts 327°
2026-05-08 11:03 47.99478 17.48407 4287 ft 170 kts 318°
2026-05-08 11:04 48.00347 17.47191 4168 ft 174 kts 315°
2026-05-08 11:04 48.01210 17.45894 3978 ft 176 kts 314°
2026-05-08 11:04 48.02055 17.44590 3812 ft 174 kts 314°
2026-05-08 11:04 48.02884 17.43299 3630 ft 171 kts 314°
2026-05-08 11:05 48.03713 17.42005 3467 ft 174 kts 314°
2026-05-08 11:05 48.04555 17.40692 3314 ft 174 kts 313°
2026-05-08 11:05 48.05389 17.39390 3132 ft 173 kts 313°
2026-05-08 11:05 48.06220 17.38091 3037 ft 177 kts 313°
2026-05-08 11:06 48.07082 17.36742 2875 ft 182 kts 313°
2026-05-08 11:06 48.07946 17.35393 2633 ft 176 kts 313°
2026-05-08 11:06 48.08757 17.34132 2446 ft 159 kts 313°
2026-05-08 11:06 48.09480 17.33003 2218 ft 143 kts 313°
2026-05-08 11:07 48.10133 17.31983 2082 ft 137 kts 312°
2026-05-08 11:07 48.10800 17.30939 1873 ft 138 kts 312°
2026-05-08 11:07 48.11471 17.29891 1683 ft 138 kts 313°
2026-05-08 11:07 48.12124 17.28871 1482 ft 138 kts 314°
2026-05-08 11:08 48.12788 17.27840 1304 ft 138 kts 314°
2026-05-08 11:08 48.13458 17.26797 1120 ft 140 kts 312°
2026-05-08 11:08 48.14128 17.25750 935 ft 138 kts 312°
2026-05-08 11:08 48.14786 17.24724 744 ft 136 kts 313°
2026-05-08 11:09 48.15440 17.23705 564 ft 137 kts 311°
2026-05-08 11:09 48.16104 17.22672 438 ft 134 kts 311°
2026-05-08 11:09 48.16641 17.21840 428 ft 81 kts 314°
2026-05-08 11:09 48.16897 17.21442 432 ft 34 kts 314°
2026-05-08 11:10 48.17056 17.21197 416 ft 25 kts 314°
2026-05-08 11:10 48.17131 17.21075 424 ft 10 kts 303°
2026-05-08 11:10 48.17107 17.20986 421 ft 10 kts 226°
2026-05-08 11:10 48.17051 17.20900 422 ft 12 kts 226°
2026-05-08 11:11 48.17061 17.20814 422 ft 10 kts 313°
2026-05-08 11:11 48.17106 17.20741 430 ft 9 kts 313°
2026-05-08 11:11 48.17151 17.20668 427 ft 10 kts 308°
2026-05-08 11:11 48.17156 17.20560 427 ft 11 kts 239°
2026-05-08 11:12 48.17098 17.20474 433 ft 12 kts 224°
2026-05-08 11:12 48.17038 17.20388 433 ft 12 kts 224°
2026-05-08 11:12 48.16981 17.20303 434 ft 11 kts 224°
2026-05-08 11:12 48.16950 17.20233 434 ft 6 kts 303°
2026-05-08 11:13 48.16976 17.20190 433 ft 6 kts 313°
2026-05-08 11:13 48.16983 17.20179 434 ft 0 kts 313°